11.02.2020;10:00;84,840;
11.02.2020;08:00;84,840;
11.02.2020;06:00;84,840;
11.02.2020;04:00;84,840;
11.02.2020;02:00;84,840;
11.02.2020;00:00;84,840;
10.02.2020;22:00;84,840;
10.02.2020;20:00;84,840;
10.02.2020;18:00;84,840;
10.02.2020;16:00;84,840;
10.02.2020;14:00;84,840;
10.02.2020;12:00;84,840;
10.02.2020;10:00;84,840;
10.02.2020;08:00;84,840;
10.02.2020;06:00;84,840;
10.02.2020;04:00;84,840;
10.02.2020;02:00;84,840;
10.02.2020;00:00;84,840;
09.02.2020;22:00;84,840;
09.02.2020;20:00;84,830;
09.02.2020;18:00;84,840;
09.02.2020;16:00;84,830;
09.02.2020;14:00;84,840;
09.02.2020;12:00;84,830;
09.02.2020;10:00;84,840;
09.02.2020;08:00;84,830;
09.02.2020;06:00;84,830;
09.02.2020;04:00;84,830;
09.02.2020;02:00;84,830;
09.02.2020;00:00;84,830;
08.02.2020;22:00;84,830;
08.02.2020;20:00;84,840;
08.02.2020;18:00;84,830;
08.02.2020;16:00;84,830;
08.02.2020;14:00;84,840;
08.02.2020;12:00;84,840;
08.02.2020;10:00;84,830;
08.02.2020;08:00;84,840;
08.02.2020;06:00;84,840;
08.02.2020;04:00;84,840;
08.02.2020;02:00;84,840;
08.02.2020;00:00;84,840;
07.02.2020;22:00;84,840;
07.02.2020;20:00;84,840;
07.02.2020;18:00;84,840;
07.02.2020;16:00;84,840;
07.02.2020;14:00;84,840;
07.02.2020;12:00;84,840;
07.02.2020;10:00;84,570;
07.02.2020;08:00;84,570;
07.02.2020;06:00;84,570;
07.02.2020;04:00;84,570;
07.02.2020;02:00;84,570;
07.02.2020;00:00;84,580;
06.02.2020;22:00;84,580;
06.02.2020;20:00;84,580;
06.02.2020;18:00;84,580;
06.02.2020;16:00;84,580;
06.02.2020;14:00;84,580;
06.02.2020;12:00;84,580;
06.02.2020;10:00;84,570;
06.02.2020;08:00;84,580;
06.02.2020;06:00;84,580;
06.02.2020;04:00;84,570;
06.02.2020;02:00;84,580;
06.02.2020;00:00;84,580;
05.02.2020;22:00;84,580;
05.02.2020;20:00;84,580;
05.02.2020;18:00;84,570;
05.02.2020;16:00;84,580;
05.02.2020;14:00;84,570;
05.02.2020;12:00;84,580;
05.02.2020;10:00;84,580;
05.02.2020;08:00;84,580;
05.02.2020;06:00;84,580;
05.02.2020;04:00;84,580;
05.02.2020;02:00;84,580;
05.02.2020;00:00;84,580;
04.02.2020;22:00;84,580;
04.02.2020;20:00;84,580;
04.02.2020;18:00;84,580;
04.02.2020;16:00;84,580;
04.02.2020;14:00;84,580;
04.02.2020;12:00;84,580;
04.02.2020;10:00;84,580;
04.02.2020;08:00;84,580;
04.02.2020;06:00;84,580;
04.02.2020;04:00;84,580;
04.02.2020;02:00;84,580;
04.02.2020;00:00;84,570;
03.02.2020;22:00;84,570;
03.02.2020;20:00;84,580;
03.02.2020;18:00;84,580;
03.02.2020;16:00;84,580;
03.02.2020;14:00;84,580;
03.02.2020;12:00;84,580;
03.02.2020;10:00;84,580;
03.02.2020;08:00;84,580;
03.02.2020;06:00;84,580;
03.02.2020;04:00;84,580;
03.02.2020;02:00;84,580;
03.02.2020;00:00;84,580;
02.02.2020;22:00;84,580;
02.02.2020;20:00;84,580;
02.02.2020;18:00;84,580;
02.02.2020;16:00;84,580;
02.02.2020;14:00;84,580;
02.02.2020;12:00;84,580;
02.02.2020;10:00;84,580;
02.02.2020;08:00;84,580;
02.02.2020;06:00;84,580;
02.02.2020;04:00;84,580;
02.02.2020;02:00;84,580;
02.02.2020;00:00;84,580;
01.02.2020;22:00;84,580;
01.02.2020;20:00;84,590;
01.02.2020;18:00;84,580;
01.02.2020;16:00;84,580;
01.02.2020;14:00;84,580;
01.02.2020;12:00;84,580;
01.02.2020;10:00;84,580;
01.02.2020;08:00;84,580;
01.02.2020;06:00;84,580;
01.02.2020;04:00;84,580;
01.02.2020;02:00;84,580;
01.02.2020;00:00;84,580;
31.01.2020;22:00;84,580;
31.01.2020;20:00;84,580;
31.01.2020;18:00;84,580;
31.01.2020;16:00;84,580;
31.01.2020;14:00;84,580;
31.01.2020;12:00;84,580;
31.01.2020;10:00;84,580;
31.01.2020;08:00;84,580;
31.01.2020;06:00;84,580;
31.01.2020;04:00;84,580;
31.01.2020;02:00;84,580;
31.01.2020;00:00;84,580;
30.01.2020;22:00;84,580;
30.01.2020;20:00;84,580;
30.01.2020;18:00;84,570;
30.01.2020;16:00;84,570;
30.01.2020;14:00;84,570;
30.01.2020;12:00;84,570;
30.01.2020;10:00;84,570;
30.01.2020;08:00;84,570;
30.01.2020;06:00;84,570;
30.01.2020;04:00;84,570;
30.01.2020;02:00;84,570;
30.01.2020;00:00;84,570;
29.01.2020;22:00;84,570;
29.01.2020;20:00;84,570;
29.01.2020;18:00;84,570;
29.01.2020;16:00;84,570;
29.01.2020;14:00;84,570;
29.01.2020;12:00;84,570;
29.01.2020;10:00;84,570;
29.01.2020;08:00;84,570;
29.01.2020;06:00;84,570;
29.01.2020;04:00;84,570;
29.01.2020;02:00;84,570;
29.01.2020;00:00;84,570;
28.01.2020;22:00;84,570;
28.01.2020;20:00;84,570;
28.01.2020;18:00;84,570;
28.01.2020;16:00;84,570;
28.01.2020;14:00;84,570;
28.01.2020;12:00;84,570;
28.01.2020;10:00;84,570;
28.01.2020;08:00;84,570;
28.01.2020;06:00;84,570;
28.01.2020;04:00;84,570;
28.01.2020;02:00;84,570;
28.01.2020;00:00;84,570;
27.01.2020;22:00;84,570;
27.01.2020;20:00;84,570;
27.01.2020;18:00;84,570;
27.01.2020;16:00;84,570;
27.01.2020;14:00;84,570;
27.01.2020;12:00;84,570;
27.01.2020;10:00;84,560;
27.01.2020;08:00;84,570;
27.01.2020;06:00;84,560;
27.01.2020;04:00;84,560;
27.01.2020;02:00;84,560;
27.01.2020;00:00;84,560;
26.01.2020;22:00;84,570;
26.01.2020;20:00;84,560;
26.01.2020;18:00;84,560;
26.01.2020;16:00;84,560;
26.01.2020;14:00;84,560;
26.01.2020;12:00;84,570;
26.01.2020;10:00;84,560;
26.01.2020;08:00;84,570;
26.01.2020;06:00;84,570;
26.01.2020;04:00;84,570;
26.01.2020;02:00;84,570;
26.01.2020;00:00;84,570;
25.01.2020;22:00;84,570;
25.01.2020;20:00;84,570;
25.01.2020;18:00;84,570;
25.01.2020;16:00;84,570;
25.01.2020;14:00;84,570;
25.01.2020;12:00;84,570;
25.01.2020;10:00;84,560;
25.01.2020;08:00;84,570;
25.01.2020;06:00;84,570;
25.01.2020;04:00;84,570;
25.01.2020;02:00;84,570;
25.01.2020;00:00;84,570;
24.01.2020;22:00;84,570;
24.01.2020;20:00;84,570;
24.01.2020;18:00;84,570;
24.01.2020;16:00;84,570;
24.01.2020;14:00;84,570;
24.01.2020;12:00;84,570;
24.01.2020;10:00;84,570;
24.01.2020;08:00;84,570;
24.01.2020;06:00;84,570;
24.01.2020;04:00;84,570;
24.01.2020;02:00;84,570;
24.01.2020;00:00;84,570;
23.01.2020;22:00;84,570;
23.01.2020;20:00;84,570;
23.01.2020;18:00;84,570;
23.01.2020;16:00;84,570;
23.01.2020;14:00;84,570;
23.01.2020;12:00;84,570;
23.01.2020;10:00;84,570;
23.01.2020;08:00;84,570;
23.01.2020;06:00;84,570;
23.01.2020;04:00;84,570;
23.01.2020;02:00;84,570;
23.01.2020;00:00;84,570;
22.01.2020;22:00;84,570;
22.01.2020;20:00;84,570;
22.01.2020;18:00;84,570;
22.01.2020;16:00;84,570;
22.01.2020;14:00;84,570;
22.01.2020;12:00;84,570;
22.01.2020;10:00;84,560;
22.01.2020;08:00;84,570;
22.01.2020;06:00;84,570;
22.01.2020;04:00;84,570;
22.01.2020;02:00;84,570;
22.01.2020;00:00;84,570;
21.01.2020;22:00;84,570;
21.01.2020;20:00;84,570;
21.01.2020;18:00;84,570;
21.01.2020;16:00;84,570;
21.01.2020;14:00;84,580;
21.01.2020;12:00;84,580;
21.01.2020;10:00;84,570;
21.01.2020;08:00;84,580;
21.01.2020;06:00;84,580;
21.01.2020;04:00;84,580;
21.01.2020;02:00;84,580;
21.01.2020;00:00;84,580;
20.01.2020;22:00;84,580;
20.01.2020;20:00;84,580;
20.01.2020;18:00;84,580;
20.01.2020;16:00;84,580;
20.01.2020;14:00;84,590;
20.01.2020;12:00;84,590;
20.01.2020;10:00;84,580;
20.01.2020;08:00;84,590;
20.01.2020;06:00;84,590;
20.01.2020;04:00;84,590;
20.01.2020;02:00;84,590;
20.01.2020;00:00;84,590;
19.01.2020;22:00;84,590;
19.01.2020;20:00;84,600;
19.01.2020;18:00;84,600;
19.01.2020;16:00;84,600;
19.01.2020;14:00;84,600;
19.01.2020;12:00;84,600;
19.01.2020;10:00;84,600;
19.01.2020;08:00;84,600;
19.01.2020;06:00;84,600;
19.01.2020;04:00;84,600;
19.01.2020;02:00;84,600;
19.01.2020;00:00;84,600;
18.01.2020;22:00;84,600;
18.01.2020;20:00;84,610;
18.01.2020;18:00;84,610;
18.01.2020;16:00;84,600;
18.01.2020;14:00;84,610;
18.01.2020;12:00;84,610;
18.01.2020;10:00;84,610;
18.01.2020;08:00;84,610;
18.01.2020;06:00;84,610;
18.01.2020;04:00;84,610;
18.01.2020;02:00;84,610;
18.01.2020;00:00;84,610;
17.01.2020;22:00;84,610;
17.01.2020;20:00;84,610;
17.01.2020;18:00;84,610;
17.01.2020;16:00;84,610;
17.01.2020;14:00;84,610;
17.01.2020;12:00;84,610;
17.01.2020;10:00;84,610;
17.01.2020;08:00;84,610;
17.01.2020;06:00;84,610;
17.01.2020;04:00;84,620;
17.01.2020;02:00;84,610;
17.01.2020;00:00;84,620;
16.01.2020;22:00;84,620;
16.01.2020;20:00;84,620;
16.01.2020;18:00;84,620;
16.01.2020;16:00;84,620;
16.01.2020;14:00;84,620;
16.01.2020;12:00;84,620;
16.01.2020;10:00;84,620;
16.01.2020;08:00;84,620;
16.01.2020;06:00;84,620;
16.01.2020;04:00;84,620;
16.01.2020;02:00;84,620;
16.01.2020;00:00;84,620;
15.01.2020;22:00;84,620;
15.01.2020;20:00;84,620;
15.01.2020;18:00;84,620;
15.01.2020;16:00;84,620;
15.01.2020;14:00;84,620;
15.01.2020;12:00;84,620;
15.01.2020;10:00;84,620;
15.01.2020;08:00;84,620;
15.01.2020;06:00;84,620;
15.01.2020;04:00;84,620;
15.01.2020;02:00;84,620;
15.01.2020;00:00;84,620;
14.01.2020;22:00;84,620;
14.01.2020;20:00;84,620;
14.01.2020;18:00;84,620;
14.01.2020;16:00;84,620;
14.01.2020;14:00;84,620;
14.01.2020;12:00;84,620;
14.01.2020;10:00;84,620;
14.01.2020;08:00;84,620;
14.01.2020;06:00;84,620;
14.01.2020;04:00;84,620;
14.01.2020;02:00;84,620;
14.01.2020;00:00;84,620;
13.01.2020;22:00;84,620;
13.01.2020;20:00;84,620;
13.01.2020;18:00;84,620;
13.01.2020;16:00;84,620;
13.01.2020;14:00;84,620;
13.01.2020;12:00;84,620;
13.01.2020;10:00;84,620;
13.01.2020;08:00;84,630;
13.01.2020;06:00;84,620;
13.01.2020;04:00;84,620;
13.01.2020;02:00;84,620;
13.01.2020;00:00;84,620;
12.01.2020;22:00;84,620;
12.01.2020;20:00;84,620;
12.01.2020;18:00;84,620;
12.01.2020;16:00;84,620;
12.01.2020;14:00;84,620;
12.01.2020;12:00;84,620;
12.01.2020;10:00;84,620;
12.01.2020;08:00;84,620;
12.01.2020;06:00;84,620;
12.01.2020;04:00;84,620;
12.01.2020;02:00;84,620;
12.01.2020;00:00;84,620;
11.01.2020;22:00;84,630;
11.01.2020;20:00;84,630;
11.01.2020;18:00;84,620;
11.01.2020;16:00;84,630;
11.01.2020;14:00;84,630;
11.01.2020;12:00;84,630;
11.01.2020;10:00;84,620;
11.01.2020;08:00;84,630;
11.01.2020;06:00;84,630;
11.01.2020;04:00;84,630;
11.01.2020;02:00;84,630;
11.01.2020;00:00;84,630;
10.01.2020;22:00;84,630;
10.01.2020;20:00;84,630;
10.01.2020;18:00;84,630;
10.01.2020;16:00;84,630;
10.01.2020;14:00;84,630;
10.01.2020;12:00;84,630;
10.01.2020;10:00;84,620;
10.01.2020;08:00;84,620;
10.01.2020;06:00;84,620;
10.01.2020;04:00;84,620;
10.01.2020;02:00;84,620;
10.01.2020;00:00;84,620;
09.01.2020;22:00;84,620;
09.01.2020;20:00;84,620;
09.01.2020;18:00;84,620;
09.01.2020;16:00;84,620;
09.01.2020;14:00;84,620;
09.01.2020;12:00;84,620;
09.01.2020;10:00;84,620;
09.01.2020;08:00;84,620;
09.01.2020;06:00;84,620;
09.01.2020;04:00;84,620;
09.01.2020;02:00;84,620;
09.01.2020;00:00;84,620;
08.01.2020;22:00;84,620;
08.01.2020;20:00;84,620;
08.01.2020;18:00;84,620;
08.01.2020;16:00;84,620;
08.01.2020;14:00;84,620;
08.01.2020;12:00;84,620;
08.01.2020;10:00;84,620;
08.01.2020;08:00;84,620;
08.01.2020;06:00;84,620;
08.01.2020;04:00;84,620;
08.01.2020;02:00;84,620;
08.01.2020;00:00;84,620;
07.01.2020;22:00;84,620;
07.01.2020;20:00;84,620;
07.01.2020;18:00;84,620;
07.01.2020;16:00;84,620;
07.01.2020;14:00;84,620;
07.01.2020;12:00;84,620;
07.01.2020;10:00;84,620;
07.01.2020;08:00;84,620;
07.01.2020;06:00;84,620;
07.01.2020;04:00;84,620;
07.01.2020;02:00;84,620;
07.01.2020;00:00;84,620;
06.01.2020;22:00;84,620;
06.01.2020;20:00;84,620;
06.01.2020;18:00;84,620;
06.01.2020;16:00;84,620;
06.01.2020;14:00;84,620;
06.01.2020;12:00;84,620;
06.01.2020;10:00;84,620;
06.01.2020;08:00;84,620;
06.01.2020;06:00;84,620;
06.01.2020;04:00;84,620;
06.01.2020;02:00;84,620;
06.01.2020;00:00;84,620;
05.01.2020;22:00;84,620;
05.01.2020;20:00;84,620;
05.01.2020;18:00;84,620;
05.01.2020;16:00;84,620;
05.01.2020;14:00;84,620;
05.01.2020;12:00;84,620;
05.01.2020;10:00;84,620;
05.01.2020;08:00;84,620;
05.01.2020;06:00;84,620;
05.01.2020;04:00;84,620;
05.01.2020;02:00;84,620;
05.01.2020;00:00;84,620;
04.01.2020;22:00;84,620;
04.01.2020;20:00;84,620;
04.01.2020;18:00;84,620;
04.01.2020;16:00;84,620;
04.01.2020;14:00;84,620;
04.01.2020;12:00;84,620;
04.01.2020;10:00;84,620;
04.01.2020;08:00;84,620;
04.01.2020;06:00;84,620;
04.01.2020;04:00;84,620;
04.01.2020;02:00;84,620;
04.01.2020;00:00;84,620;
03.01.2020;22:00;84,620;
03.01.2020;20:00;84,620;
03.01.2020;18:00;84,620;
03.01.2020;16:00;84,620;
03.01.2020;14:00;84,620;
03.01.2020;12:00;84,620;
03.01.2020;10:00;84,620;
03.01.2020;08:00;84,620;
03.01.2020;06:00;84,620;
03.01.2020;04:00;84,620;
03.01.2020;02:00;84,620;
03.01.2020;00:00;84,620;
02.01.2020;22:00;84,620;
02.01.2020;20:00;84,620;
02.01.2020;18:00;84,620;
02.01.2020;16:00;84,620;
02.01.2020;14:00;84,620;
02.01.2020;12:00;84,620;
02.01.2020;10:00;84,620;
02.01.2020;08:00;84,620;
02.01.2020;06:00;84,620;
02.01.2020;04:00;84,620;
02.01.2020;02:00;84,620;
02.01.2020;00:00;84,620;
01.01.2020;22:00;84,620;
01.01.2020;20:00;84,620;
01.01.2020;18:00;84,620;
01.01.2020;16:00;84,620;
01.01.2020;14:00;84,620;
01.01.2020;12:00;84,620;
01.01.2020;10:00;84,630;
01.01.2020;08:00;84,630;
01.01.2020;06:00;84,630;
01.01.2020;04:00;84,630;
01.01.2020;02:00;84,630;
01.01.2020;00:00;84,630;
31.12.2019;22:00;84,630;
31.12.2019;20:00;84,630;
31.12.2019;18:00;84,630;
31.12.2019;16:00;84,620;
31.12.2019;14:00;84,620;
31.12.2019;12:00;84,620;
31.12.2019;10:00;84,620;
31.12.2019;08:00;84,630;
31.12.2019;06:00;84,620;
31.12.2019;04:00;84,630;
31.12.2019;02:00;84,630;
31.12.2019;00:00;84,620;
30.12.2019;22:00;84,620;
30.12.2019;20:00;84,630;
30.12.2019;18:00;84,620;
30.12.2019;16:00;84,620;
30.12.2019;14:00;84,620;
30.12.2019;12:00;84,630;
30.12.2019;10:00;84,630;
30.12.2019;08:00;84,630;
30.12.2019;06:00;84,630;
30.12.2019;04:00;84,630;
30.12.2019;02:00;84,630;
30.12.2019;00:00;84,630;
29.12.2019;22:00;84,630;
29.12.2019;20:00;84,630;
29.12.2019;18:00;84,630;
29.12.2019;16:00;84,620;
29.12.2019;14:00;84,630;
29.12.2019;12:00;84,630;
29.12.2019;10:00;84,630;
29.12.2019;08:00;84,630;
29.12.2019;06:00;84,630;
29.12.2019;04:00;84,630;
29.12.2019;02:00;84,630;
29.12.2019;00:00;84,630;
28.12.2019;22:00;84,630;
28.12.2019;20:00;84,630;
28.12.2019;18:00;84,630;
28.12.2019;16:00;84,630;
28.12.2019;14:00;84,630;
28.12.2019;12:00;84,630;
28.12.2019;10:00;84,630;
28.12.2019;08:00;84,630;
28.12.2019;06:00;84,630;
28.12.2019;04:00;84,630;
28.12.2019;02:00;84,630;
28.12.2019;00:00;84,630;
27.12.2019;22:00;84,630;
27.12.2019;20:00;84,630;
27.12.2019;18:00;84,630;
27.12.2019;16:00;84,630;
27.12.2019;14:00;84,630;
27.12.2019;12:00;84,630;
27.12.2019;10:00;84,630;
27.12.2019;08:00;84,630;
27.12.2019;06:00;84,630;
27.12.2019;04:00;84,630;
27.12.2019;02:00;84,630;
27.12.2019;00:00;84,620;
26.12.2019;22:00;84,620;
26.12.2019;20:00;84,620;
26.12.2019;18:00;84,620;
26.12.2019;16:00;84,620;
26.12.2019;14:00;84,620;
26.12.2019;12:00;84,620;
26.12.2019;10:00;84,620;
26.12.2019;08:00;84,620;
26.12.2019;06:00;84,620;
26.12.2019;04:00;84,620;
26.12.2019;02:00;84,620;
26.12.2019;00:00;84,620;
25.12.2019;22:00;84,620;
25.12.2019;20:00;84,620;
25.12.2019;18:00;84,620;
25.12.2019;16:00;84,620;
25.12.2019;14:00;84,620;
25.12.2019;12:00;84,620;
25.12.2019;10:00;84,620;
25.12.2019;08:00;84,620;
25.12.2019;06:00;84,620;
25.12.2019;04:00;84,620;
25.12.2019;02:00;84,620;
25.12.2019;00:00;84,610;
24.12.2019;22:00;84,610;
24.12.2019;20:00;84,610;
24.12.2019;18:00;84,610;
24.12.2019;16:00;84,610;
24.12.2019;14:00;84,620;
24.12.2019;12:00;84,620;
24.12.2019;10:00;84,620;
24.12.2019;08:00;84,620;
24.12.2019;06:00;84,620;
24.12.2019;04:00;84,620;
24.12.2019;02:00;84,620;
24.12.2019;00:00;84,630;
23.12.2019;22:00;84,630;
23.12.2019;20:00;84,630;
23.12.2019;18:00;84,630;
23.12.2019;16:00;84,630;
23.12.2019;14:00;84,630;
23.12.2019;12:00;84,630;
23.12.2019;10:00;84,630;
23.12.2019;08:00;84,640;
23.12.2019;06:00;84,640;
23.12.2019;04:00;84,640;
23.12.2019;02:00;84,640;
23.12.2019;00:00;84,650;
22.12.2019;22:00;84,650;
22.12.2019;20:00;84,650;
22.12.2019;18:00;84,650;
22.12.2019;16:00;84,650;
22.12.2019;14:00;84,660;
22.12.2019;12:00;84,660;
22.12.2019;10:00;84,660;
22.12.2019;08:00;84,660;
22.12.2019;06:00;84,660;
22.12.2019;04:00;84,660;
22.12.2019;02:00;84,670;
22.12.2019;00:00;84,670;
21.12.2019;22:00;84,680;
21.12.2019;20:00;84,680;
21.12.2019;18:00;84,680;
21.12.2019;16:00;84,680;
21.12.2019;14:00;84,680;
21.12.2019;12:00;84,680;
21.12.2019;10:00;84,680;
21.12.2019;08:00;84,690;
21.12.2019;06:00;84,690;
21.12.2019;04:00;84,690;
21.12.2019;02:00;84,690;
21.12.2019;00:00;84,690;
20.12.2019;22:00;84,690;
20.12.2019;20:00;84,690;
20.12.2019;18:00;84,690;
20.12.2019;16:00;84,690;
20.12.2019;14:00;84,690;
20.12.2019;12:00;84,680;
20.12.2019;10:00;84,680;
20.12.2019;08:00;84,680;
20.12.2019;06:00;84,680;
20.12.2019;04:00;84,680;
20.12.2019;02:00;84,680;
20.12.2019;00:00;84,680;
19.12.2019;22:00;84,680;
19.12.2019;20:00;84,680;
19.12.2019;18:00;84,680;
19.12.2019;16:00;84,670;
19.12.2019;14:00;84,670;
19.12.2019;12:00;84,670;
19.12.2019;10:00;84,670;
19.12.2019;08:00;84,670;
19.12.2019;06:00;84,670;
19.12.2019;04:00;84,670;
19.12.2019;02:00;84,670;
19.12.2019;00:00;84,670;
18.12.2019;22:00;84,670;
18.12.2019;20:00;84,670;
18.12.2019;18:00;84,670;
18.12.2019;16:00;84,670;
18.12.2019;14:00;84,650;
18.12.2019;12:00;84,640;
18.12.2019;10:00;84,640;
18.12.2019;08:00;84,640;
18.12.2019;06:00;84,630;
18.12.2019;04:00;84,630;
18.12.2019;02:00;84,630;
18.12.2019;00:00;84,630;
17.12.2019;22:00;84,630;
17.12.2019;20:00;84,630;
17.12.2019;18:00;84,630;
17.12.2019;16:00;84,630;
17.12.2019;14:00;84,630;
17.12.2019;12:00;84,630;
17.12.2019;10:00;84,630;
17.12.2019;08:00;84,630;
17.12.2019;06:00;84,630;
17.12.2019;04:00;84,630;
17.12.2019;02:00;84,630;
17.12.2019;00:00;84,620;
16.12.2019;22:00;84,620;
16.12.2019;20:00;84,630;
16.12.2019;18:00;84,620;
16.12.2019;16:00;84,620;
16.12.2019;14:00;84,520;
16.12.2019;12:00;84,520;
16.12.2019;10:00;84,450;
16.12.2019;08:00;84,450;
16.12.2019;06:00;84,450;
16.12.2019;04:00;84,460;
16.12.2019;02:00;84,450;
16.12.2019;00:00;84,450;
15.12.2019;22:00;84,450;
15.12.2019;20:00;84,450;
15.12.2019;18:00;84,450;
15.12.2019;16:00;84,450;
15.12.2019;14:00;84,450;
15.12.2019;12:00;84,450;
15.12.2019;10:00;84,450;
15.12.2019;08:00;84,450;
15.12.2019;06:00;84,450;
15.12.2019;04:00;84,450;
15.12.2019;02:00;84,450;
15.12.2019;00:00;84,460;
14.12.2019;22:00;84,450;
14.12.2019;20:00;84,450;
14.12.2019;18:00;84,450;
14.12.2019;16:00;84,450;
14.12.2019;14:00;84,450;
14.12.2019;12:00;84,460;
14.12.2019;10:00;84,460;
14.12.2019;08:00;84,460;
14.12.2019;06:00;84,450;
14.12.2019;04:00;84,460;
14.12.2019;02:00;84,460;
14.12.2019;00:00;84,460;
13.12.2019;22:00;84,460;
13.12.2019;20:00;84,460;
13.12.2019;18:00;84,460;
13.12.2019;16:00;84,460;
13.12.2019;14:00;84,460;
13.12.2019;12:00;84,460;
13.12.2019;10:00;84,460;
13.12.2019;08:00;84,460;
13.12.2019;06:00;84,460;
13.12.2019;04:00;84,460;
13.12.2019;02:00;84,460;
13.12.2019;00:00;84,460;
12.12.2019;22:00;84,460;
12.12.2019;20:00;84,460;
12.12.2019;18:00;84,460;
12.12.2019;16:00;84,460;
12.12.2019;14:00;84,460;
12.12.2019;12:00;84,460;
12.12.2019;10:00;84,460;
12.12.2019;08:00;84,460;
12.12.2019;06:00;84,460;
12.12.2019;04:00;84,460;
12.12.2019;02:00;84,460;
12.12.2019;00:00;84,460;
11.12.2019;22:00;84,460;
11.12.2019;20:00;84,460;
11.12.2019;18:00;84,460;
11.12.2019;16:00;84,460;
11.12.2019;14:00;84,460;
11.12.2019;12:00;84,470;
11.12.2019;10:00;84,470;
11.12.2019;08:00;84,470;
11.12.2019;06:00;84,470;
11.12.2019;04:00;84,470;
11.12.2019;02:00;84,470;
11.12.2019;00:00;84,470;
10.12.2019;22:00;84,460;
10.12.2019;20:00;84,460;
10.12.2019;18:00;84,460;
10.12.2019;16:00;84,470;
10.12.2019;14:00;84,470;
10.12.2019;12:00;84,470;
10.12.2019;10:00;84,470;
10.12.2019;08:00;84,470;
10.12.2019;06:00;84,470;
10.12.2019;04:00;84,470;
10.12.2019;02:00;84,470;
10.12.2019;00:00;84,470;
09.12.2019;22:00;84,470;
09.12.2019;20:00;84,470;
09.12.2019;18:00;84,470;
09.12.2019;16:00;84,470;
09.12.2019;14:00;84,470;
09.12.2019;12:00;84,470;
09.12.2019;10:00;84,470;
09.12.2019;08:00;84,470;
09.12.2019;06:00;84,470;
09.12.2019;04:00;84,470;
09.12.2019;02:00;84,470;
09.12.2019;00:00;84,470;
08.12.2019;22:00;84,460;
08.12.2019;20:00;84,460;
08.12.2019;18:00;84,460;
08.12.2019;16:00;84,460;
08.12.2019;14:00;84,460;
08.12.2019;12:00;84,460;
08.12.2019;10:00;84,450;
08.12.2019;08:00;84,460;
08.12.2019;06:00;84,460;
08.12.2019;04:00;84,460;
08.12.2019;02:00;84,460;
08.12.2019;00:00;84,450;
07.12.2019;22:00;84,450;
07.12.2019;20:00;84,450;
07.12.2019;18:00;84,450;
07.12.2019;16:00;84,450;
07.12.2019;14:00;84,450;
07.12.2019;12:00;84,450;
07.12.2019;10:00;84,440;
07.12.2019;08:00;84,440;
07.12.2019;06:00;84,440;
07.12.2019;04:00;84,440;
07.12.2019;02:00;84,440;
07.12.2019;00:00;84,440;
06.12.2019;22:00;84,440;
06.12.2019;20:00;84,440;
06.12.2019;18:00;84,440;
06.12.2019;16:00;84,440;
06.12.2019;14:00;84,440;
06.12.2019;12:00;84,440;
06.12.2019;10:00;84,430;
06.12.2019;08:00;84,440;
06.12.2019;06:00;84,440;
06.12.2019;04:00;84,430;
06.12.2019;02:00;84,430;
06.12.2019;00:00;84,430;
05.12.2019;22:00;84,430;
05.12.2019;20:00;84,430;
05.12.2019;18:00;84,430;
05.12.2019;16:00;84,430;
05.12.2019;14:00;84,430;
05.12.2019;12:00;84,430;
05.12.2019;10:00;84,420;
05.12.2019;08:00;84,430;
05.12.2019;06:00;84,430;
05.12.2019;04:00;84,430;
05.12.2019;02:00;84,430;
05.12.2019;00:00;84,430;
04.12.2019;22:00;84,430;
04.12.2019;20:00;84,430;
04.12.2019;18:00;84,430;
04.12.2019;16:00;84,430;
04.12.2019;14:00;84,430;
04.12.2019;12:00;84,430;
04.12.2019;10:00;84,430;
04.12.2019;08:00;84,430;
04.12.2019;06:00;84,430;
04.12.2019;04:00;84,430;
04.12.2019;02:00;84,430;
04.12.2019;00:00;84,430;
03.12.2019;22:00;84,440;
03.12.2019;20:00;84,440;
03.12.2019;18:00;84,440;
03.12.2019;16:00;84,440;
03.12.2019;14:00;84,440;
03.12.2019;12:00;84,440;
03.12.2019;10:00;84,430;
03.12.2019;08:00;84,430;
03.12.2019;06:00;84,440;
03.12.2019;04:00;84,440;
03.12.2019;02:00;84,440;
03.12.2019;00:00;84,440;
02.12.2019;22:00;84,440;
02.12.2019;20:00;84,440;
02.12.2019;18:00;84,430;
02.12.2019;16:00;84,430;
02.12.2019;14:00;84,440;
02.12.2019;12:00;84,440;
02.12.2019;10:00;84,440;
02.12.2019;08:00;84,440;
02.12.2019;06:00;84,440;
02.12.2019;04:00;84,440;
02.12.2019;02:00;84,430;
02.12.2019;00:00;84,440;
01.12.2019;22:00;84,430;
01.12.2019;20:00;84,430;
01.12.2019;18:00;84,430;
01.12.2019;16:00;84,440;
01.12.2019;14:00;84,440;
01.12.2019;12:00;84,440;
01.12.2019;10:00;84,430;
01.12.2019;08:00;84,440;
01.12.2019;06:00;84,430;
01.12.2019;04:00;84,430;
01.12.2019;02:00;84,430;
01.12.2019;00:00;84,430;
30.11.2019;22:00;84,430;
30.11.2019;20:00;84,430;
30.11.2019;18:00;84,430;
30.11.2019;16:00;84,430;
30.11.2019;14:00;84,430;
30.11.2019;12:00;84,430;
30.11.2019;10:00;84,420;
30.11.2019;08:00;84,420;
30.11.2019;06:00;84,420;
30.11.2019;04:00;84,420;
30.11.2019;02:00;84,410;
30.11.2019;00:00;84,410;
29.11.2019;22:00;84,410;
29.11.2019;20:00;84,410;
29.11.2019;18:00;84,410;
29.11.2019;16:00;84,400;
29.11.2019;14:00;84,390;
29.11.2019;12:00;84,390;
29.11.2019;10:00;84,390;
29.11.2019;08:00;84,390;
29.11.2019;06:00;84,380;
29.11.2019;04:00;84,380;
29.11.2019;02:00;84,380;
29.11.2019;00:00;84,380;
28.11.2019;22:00;84,380;
28.11.2019;20:00;84,380;
28.11.2019;18:00;84,380;
28.11.2019;16:00;84,370;
28.11.2019;14:00;84,370;
28.11.2019;12:00;84,370;
28.11.2019;10:00;84,370;
28.11.2019;08:00;84,370;
28.11.2019;06:00;84,370;
28.11.2019;04:00;84,370;
28.11.2019;02:00;84,370;
28.11.2019;00:00;84,370;
27.11.2019;22:00;84,370;
27.11.2019;20:00;84,360;
27.11.2019;18:00;84,360;
27.11.2019;16:00;84,360;
27.11.2019;14:00;84,360;
27.11.2019;12:00;84,360;
27.11.2019;10:00;84,350;
27.11.2019;08:00;84,360;
27.11.2019;06:00;84,360;
27.11.2019;04:00;84,360;
27.11.2019;02:00;84,350;
27.11.2019;00:00;84,350;
26.11.2019;22:00;84,350;
26.11.2019;20:00;84,350;
26.11.2019;18:00;84,350;
26.11.2019;16:00;84,350;
26.11.2019;14:00;84,350;